User: anonymous   Login
Location: Unspecified
(0.0000°N, 0.0000°E)
Time: 20:25:03
(UTC+00:00)
Language:

NNS O-23 - Orbit

View from above orbital plane
View from above orbital plane
View from above satellite
View from above satellite

Ground track
Ground track

The orbit data is extracted from the following two-line orbital elements,

1 19070U 88033A   17207.24194887 +.00000006 +00000-0 -53848-5 0  9999
2 19070 090.3663 274.8345 0192035 052.3713 008.2245 13.27411063416347
Epoch (UTC): 26 July 2017 05:48:24
Eccentricity: 0.0192035
inclination: 90.3663°
perigee height: 1012 km
apogee height: 1301 km
right ascension of ascending node: 274.8345°
argument of perigee: 52.3713°
revolutions per day: 13.27411063
mean anomaly at epoch: 8.2245°
orbit number at epoch: 41634

The dashed part of the orbit path shows where the satellite is in the earth's shadow,  

DLR